FW8871 Weather Reports


Display with metric or nautical units.
time (UTC)temp
F
wind
direction
speed
MPH
gust
MPH
rain 1hr
in
rain 24hr
in
rain mn
in
humidity
%
barometer
mb
20260904234608 96 129 11.0 17.0 0.00 0.00 0.00 35 1012.2
20260904234049 96 134 13.0 17.0 0.00 0.00 0.00 35 1012.3
20260904233549 96 110 12.0 17.0 0.00 0.00 0.00 35 1012.2
20260904233104 96 131 12.0 17.0 0.00 0.00 0.00 35 1012.2
20260904232547 96 136 11.0 18.0 0.00 0.00 0.00 35 1012.2
20260904232054 96 125 13.0 18.0 0.00 0.00 0.00 35 1012.2
20260904231603 96 135 12.0 18.0 0.00 0.00 0.00 35 1012.1
20260904231050 97 150 12.0 18.0 0.00 0.00 0.00 34 1012.2
20260904230548 97 139 11.0 18.0 0.00 0.00 0.00 34 1012.2
20260904230058 98 137 14.0 23.0 0.00 0.00 0.00 33 1012.2
20260904225550 99 172 16.0 23.0 0.00 0.00 0.00 32 1012.2
20260904225045 100 144 15.0 22.0 0.00 0.00 0.00 31 1012.2
20260904224604 100 127 13.0 22.0 0.00 0.00 0.00 31 1012.2
20260904224049 100 131 15.0 22.0 0.00 0.00 0.00 30 1012.1
20260904223549 101 167 14.0 24.0 0.00 0.00 0.00 30 1012.1
20260904223102 100 136 16.0 24.0 0.00 0.00 0.00 32 1012.1
20260904222549 100 143 14.0 21.0 0.00 0.00 0.00 32 1012.0
20260904222046 100 155 15.0 22.0 0.00 0.00 0.00 32 1012.0
20260904221602 100 158 15.0 22.0 0.00 0.00 0.00 32 1012.0
20260904221049 100 150 16.0 27.0 0.00 0.00 0.00 30 1012.0
20260904220549 101 142 14.0 27.0 0.00 0.00 0.00 30 1012.0
20260904220112 101 162 16.0 22.0 0.00 0.00 0.00 31 1012.0
20260904215548 101 141 16.0 23.0 0.00 0.00 0.00 30 1012.1
20260904215053 101 191 14.0 23.0 0.00 0.00 0.00 30 1012.1
20260904214603 101 148 13.0 21.0 0.00 0.00 0.00 30 1012.2
20260904214049 101 147 14.0 23.0 0.00 0.00 0.00 31 1012.1
20260904213549 100 114 17.0 23.0 0.00 0.00 0.00 32 1012.1
20260904213104 100 113 16.0 23.0 0.00 0.00 0.00 31 1012.2
20260904212547 101 146 14.0 23.0 0.00 0.00 0.00 31 1012.1
20260904212045 101 142 14.0 21.0 0.00 0.00 0.00 30 1012.2
20260904211609 101 118 15.0 22.0 0.00 0.00 0.00 32 1012.2
20260904211049 100 136 16.0 23.0 0.00 0.00 0.00 32 1012.2
20260904210549 100 122 17.0 23.0 0.00 0.00 0.00 32 1012.2
20260904210114 100 158 14.0 23.0 0.00 0.00 0.00 31 1012.2
20260904205549 100 160 15.0 23.0 0.00 0.00 0.00 31 1012.3
20260904205048 100 125 17.0 23.0 0.00 0.00 0.00 31 1012.3
20260904204605 100 140 15.0 22.0 0.00 0.00 0.00 31 1012.4
20260904204049 99 125 15.0 22.0 0.00 0.00 0.00 33 1012.4
20260904203546 100 153 17.0 21.0 0.00 0.00 0.00 32 1012.5
20260904203105 99 136 15.0 23.0 0.00 0.00 0.00 34 1012.7
20260904202549 99 141 16.0 25.0 0.00 0.00 0.00 34 1012.8
20260904202049 99 131 18.0 25.0 0.00 0.00 0.00 33 1012.8
20260904201606 99 173 11.0 21.0 0.00 0.00 0.00 35 1012.9
20260904201049 99 139 15.0 23.0 0.00 0.00 0.00 32 1013.0
20260904200551 99 150 16.0 23.0 0.00 0.00 0.00 33 1013.0
20260904200127 99 154 11.0 21.0 0.00 0.00 0.00 35 1013.0
20260904195549 99 158 13.0 21.0 0.00 0.00 0.00 35 1013.1
20260904195052 99 148 14.0 21.0 0.00 0.00 0.00 37 1013.2
20260904194634 98 156 13.0 20.0 0.00 0.00 0.00 38 1013.3
20260904194046 98 141 13.0 19.0 0.00 0.00 0.00 37 1013.3
20260904193546 98 163 13.0 23.0 0.00 0.00 0.00 38 1013.4
20260904193105 98 140 14.0 23.0 0.00 0.00 0.00 37 1013.4
20260904192549 98 165 15.0 21.0 0.00 0.00 0.00 37 1013.2
20260904192052 97 134 14.0 22.0 0.00 0.00 0.00 38 1013.3
20260904191624 97 137 13.0 22.0 0.00 0.00 0.00 40 1013.3
20260904191049 97 124 11.0 22.0 0.00 0.00 0.00 40 1013.4
20260904190548 97 141 12.0 21.0 0.00 0.00 0.00 40 1013.4
20260904185552 96 145 15.0 21.0 0.00 0.00 0.00 42 1013.6
20260904185046 96 141 15.0 20.0 0.00 0.00 0.00 42 1013.8
20260904184614 96 130 14.0 20.0 0.00 0.00 0.00 43 1013.8
20260904184049 96 160 14.0 20.0 0.00 0.00 0.00 42 1013.8
20260904183549 96 149 12.0 21.0 0.00 0.00 0.00 43 1013.8
20260904183111 95 136 15.0 21.0 0.00 0.00 0.00 44 1013.8
20260904182551 95 154 13.0 20.0 0.00 0.00 0.00 45 1013.8
20260904182048 95 138 14.0 20.0 0.00 0.00 0.00 46 1014.0
20260904181603 95 130 13.0 22.0 0.00 0.00 0.00 46 1014.0
20260904181049 94 146 13.0 22.0 0.00 0.00 0.00 46 1014.0
20260904180549 94 118 12.0 20.0 0.00 0.00 0.00 47 1014.0
20260904180059 94 155 12.0 19.0 0.00 0.00 0.00 47 1014.0
20260904175549 94 179 12.0 21.0 0.00 0.00 0.00 48 1014.2
20260904175049 94 151 10.0 21.0 0.00 0.00 0.00 48 1014.2
20260904174605 93 143 11.0 18.0 0.00 0.00 0.00 49 1014.3
20260904174049 93 123 12.0 18.0 0.00 0.00 0.00 48 1014.4
20260904173549 92 174 13.0 19.0 0.00 0.00 0.00 50 1014.4
20260904173111 92 148 11.0 19.0 0.00 0.00 0.00 51 1014.3
20260904172550 92 143 12.0 19.0 0.00 0.00 0.00 51 1014.3
20260904172049 92 151 12.0 19.0 0.00 0.00 0.00 51 1014.4
20260904171556 92 150 10.0 19.0 0.00 0.00 0.00 51 1014.4
20260904171048 91 142 11.0 17.0 0.00 0.00 0.00 52 1014.4
20260904170548 91 151 11.0 16.0 0.00 0.00 0.00 53 1014.4
20260904170106 91 147 12.0 21.0 0.00 0.00 0.00 53 1014.3
20260904165549 90 173 10.0 21.0 0.00 0.00 0.00 54 1014.3
20260904165050 90 189 11.0 21.0 0.00 0.00 0.00 54 1014.4
20260904164605 90 158 12.0 18.0 0.00 0.00 0.00 55 1014.4
20260904164052 89 148 10.0 16.0 0.00 0.00 0.00 56 1014.6
20260904163549 88 132 10.0 16.0 0.00 0.00 0.00 58 1014.5
20260904163100 88 165 11.0 18.0 0.00 0.00 0.00 58 1014.4
20260904162549 88 137 11.0 18.0 0.00 0.00 0.00 59 1014.4
20260904162047 87 196 11.0 18.0 0.00 0.00 0.00 59 1014.4
20260904161557 87 148 11.0 18.0 0.00 0.00 0.00 60 1014.6
20260904161047 87 140 11.0 18.0 0.00 0.00 0.00 60 1014.6
20260904160552 87 169 12.0 18.0 0.00 0.00 0.00 61 1014.7
20260904160106 87 157 12.0 19.0 0.00 0.00 0.00 61 1014.7
20260904155550 86 164 11.0 19.0 0.00 0.00 0.00 61 1014.5
20260904155054 86 199 13.0 19.0 0.00 0.00 0.00 62 1014.6
20260904154620 86 150 13.0 19.0 0.00 0.00 0.00 63 1014.6
20260904154049 85 168 13.0 18.0 0.00 0.00 0.00 63 1014.6
20260904153549 85 163 13.0 18.0 0.00 0.00 0.00 64 1014.6
20260904153102 85 162 13.0 17.0 0.00 0.00 0.00 65 1014.6
20260904152546 85 186 12.0 19.0 0.00 0.00 0.00 65 1014.7
20260904152045 84 176 12.0 19.0 0.00 0.00 0.00 67 1014.7
20260904151607 83 190 13.0 18.0 0.00 0.00 0.00 68 1014.5
20260904151046 83 141 13.0 18.0 0.00 0.00 0.00 69 1014.5
20260904150552 83 169 12.0 18.0 0.00 0.00 0.00 69 1014.4
20260904150103 82 149 14.0 18.0 0.00 0.00 0.00 70 1014.5
20260904145550 82 155 13.0 18.0 0.00 0.00 0.00 71 1014.5
20260904145047 82 169 12.0 18.0 0.00 0.00 0.00 72 1014.5
20260904144604 81 131 14.0 18.0 0.00 0.00 0.00 74 1014.5
20260904144047 81 205 14.0 18.0 0.00 0.00 0.00 74 1014.6
20260904143552 81 198 13.0 20.0 0.00 0.00 0.00 74 1014.6
20260904143059 80 164 12.0 20.0 0.00 0.00 0.00 75 1014.5
20260904142546 80 159 14.0 20.0 0.00 0.00 0.00 76 1014.5
20260904142045 80 177 15.0 20.0 0.00 0.00 0.00 76 1014.6
20260904141618 79 146 13.0 19.0 0.00 0.00 0.00 77 1014.4
20260904141046 79 177 14.0 20.0 0.00 0.00 0.00 78 1014.5
20260904140549 78 152 14.0 20.0 0.00 0.00 0.00 78 1014.4
20260904140110 78 176 15.0 21.0 0.00 0.00 0.00 79 1014.4
20260904135547 78 142 15.0 21.0 0.00 0.00 0.00 79 1014.4
20260904135050 78 155 14.0 19.0 0.00 0.00 0.00 80 1014.5
20260904134621 77 156 11.0 18.0 0.00 0.00 0.00 81 1014.4
20260904134046 76 154 12.0 18.0 0.00 0.00 0.00 81 1014.5
20260904133547 76 167 12.0 18.0 0.00 0.00 0.00 82 1014.4
20260904133111 76 162 11.0 16.0 0.00 0.00 0.00 83 1014.3
20260904132549 75 178 11.0 16.0 0.00 0.00 0.00 83 1014.3
20260904132046 75 154 12.0 15.0 0.00 0.00 0.00 83 1014.3
20260904131615 75 146 12.0 15.0 0.00 0.00 0.00 84 1014.2
20260904131047 74 147 11.0 15.0 0.00 0.00 0.00 84 1014.2
20260904130547 74 149 11.0 15.0 0.00 0.00 0.00 84 1014.2
20260904130105 74 122 10.0 15.0 0.00 0.00 0.00 84 1014.2
20260904125549 74 153 12.0 15.0 0.00 0.00 0.00 85 1014.2
20260904125050 73 153 10.0 15.0 0.00 0.00 0.00 85 1014.0
20260904124605 73 142 11.0 15.0 0.00 0.00 0.00 85 1014.0
20260904124046 73 133 11.0 15.0 0.00 0.00 0.00 85 1013.9
20260904123546 73 156 11.0 15.0 0.00 0.00 0.00 85 1013.9
20260904123128 73 150 11.0 14.0 0.00 0.00 0.00 85 1013.8
20260904122546 73 149 10.0 15.0 0.00 0.00 0.00 84 1013.8
20260904122045 73 143 11.0 15.0 0.00 0.00 0.00 84 1013.7
20260904121603 73 148 10.0 13.0 0.00 0.00 0.00 84 1013.8
20260904121047 73 147 9.0 13.0 0.00 0.00 0.00 84 1013.8
20260904120546 72 141 10.0 14.0 0.00 0.00 0.00 84 1013.7
20260904120109 72 155 10.0 14.0 0.00 0.00 0.00 83 1013.8
20260904115545 72 141 10.0 14.0 0.00 0.00 0.00 83 1013.8
20260904115049 72 147 10.0 14.0 0.00 0.00 0.00 82 1013.7
20260904114608 73 145 11.0 15.0 0.00 0.00 0.00 81 1013.6
20260904114046 73 149 10.0 16.0 0.00 0.00 0.00 81 1013.5
20260904113545 73 146 12.0 17.0 0.00 0.00 0.00 80 1013.4
20260904113105 73 166 12.0 17.0 0.00 0.00 0.00 80 1013.5
20260904112546 73 176 12.0 16.0 0.00 0.00 0.00 80 1013.4
20260904112047 73 174 11.0 16.0 0.00 0.00 0.00 79 1013.5
20260904111604 73 147 11.0 16.0 0.00 0.00 0.00 79 1013.6
20260904111046 74 148 11.0 16.0 0.00 0.00 0.00 78 1013.8
20260904110548 74 149 12.0 15.0 0.00 0.00 0.00 78 1013.8
20260904110100 74 160 11.0 13.0 0.00 0.00 0.00 78 1013.7
20260904105546 74 148 9.0 14.0 0.00 0.00 0.00 77 1013.8
20260904105046 74 144 10.0 14.0 0.00 0.00 0.00 77 1013.5
20260904104555 74 149 10.0 16.0 0.00 0.00 0.00 77 1013.6
20260904104046 74 160 10.0 16.0 0.00 0.00 0.00 76 1013.6
20260904103545 74 162 13.0 16.0 0.00 0.00 0.00 76 1013.6
20260904103058 74 160 12.0 17.0 0.00 0.00 0.00 76 1013.7
20260904102548 74 132 12.0 17.0 0.00 0.00 0.00 76 1013.6
20260904102045 74 149 12.0 17.0 0.00 0.00 0.00 75 1013.5
20260904101606 74 153 11.0 15.0 0.00 0.00 0.00 75 1013.5
20260904101047 74 143 11.0 15.0 0.00 0.00 0.00 75 1013.6
20260904100545 75 139 11.0 16.0 0.00 0.00 0.00 74 1013.5
20260904100110 75 135 11.0 16.0 0.00 0.00 0.00 74 1013.6
20260904095546 75 160 11.0 16.0 0.00 0.00 0.00 73 1013.6
20260904095046 75 129 12.0 16.0 0.00 0.00 0.00 73 1013.7
20260904094603 75 141 12.0 15.0 0.00 0.00 0.00 72 1013.6
20260904094046 75 150 12.0 15.0 0.00 0.00 0.00 72 1013.5
20260904093548 76 149 11.0 15.0 0.00 0.00 0.00 71 1013.4
20260904093107 76 150 10.0 15.0 0.00 0.00 0.00 71 1013.3
20260904092546 76 148 11.0 15.0 0.00 0.00 0.00 70 1013.4
20260904092045 76 159 10.0 17.0 0.00 0.00 0.00 70 1013.4
20260904091605 77 158 11.0 19.0 0.00 0.00 0.00 69 1013.4
20260904091045 77 157 14.0 19.0 0.00 0.00 0.00 69 1013.5
20260904090545 77 156 11.0 17.0 0.00 0.00 0.00 69 1013.4
20260904090100 77 167 13.0 18.0 0.00 0.00 0.00 69 1013.4
20260904085546 77 150 12.0 18.0 0.00 0.00 0.00 69 1013.3
20260904085048 77 162 13.0 19.0 0.00 0.00 0.00 69 1013.3
20260904084556 77 156 13.0 19.0 0.00 0.00 0.00 68 1013.3
20260904084046 77 148 12.0 18.0 0.00 0.00 0.00 68 1013.4
20260904083545 77 150 13.0 20.0 0.00 0.00 0.00 68 1013.6
20260904083105 77 160 13.0 20.0 0.00 0.00 0.00 68 1013.6
20260904082545 77 150 13.0 19.0 0.00 0.00 0.00 68 1013.5
20260904082046 77 162 12.0 18.0 0.00 0.00 0.00 67 1013.4
20260904081603 77 148 12.0 16.0 0.00 0.00 0.00 67 1013.4
20260904081045 77 161 11.0 16.0 0.00 0.00 0.00 67 1013.3
20260904080546 78 155 12.0 16.0 0.00 0.00 0.00 67 1013.2
20260904080104 78 155 11.0 18.0 0.00 0.00 0.00 66 1013.3
20260904075549 78 156 12.0 18.0 0.00 0.00 0.00 66 1013.4
20260904075046 78 148 11.0 18.0 0.00 0.00 0.00 66 1013.4
20260904074555 78 146 12.0 18.0 0.00 0.00 0.00 66 1013.4
20260904074045 78 152 12.0 18.0 0.00 0.00 0.00 65 1013.4
20260904073559 78 136 12.0 18.0 0.00 0.00 0.00 65 1013.2
20260904073105 78 148 13.0 18.0 0.00 0.00 0.00 65 1013.4
20260904072546 79 157 11.0 19.0 0.00 0.00 0.00 65 1013.4
20260904072045 79 148 13.0 19.0 0.00 0.00 0.00 64 1013.4
20260904071604 79 139 14.0 19.0 0.00 0.00 0.00 64 1013.5
20260904071048 79 157 12.0 17.0 0.00 0.00 0.00 64 1013.5
20260904070547 79 141 12.0 18.0 0.00 0.00 0.00 63 1013.5
20260904065548 80 153 14.0 19.0 0.00 0.00 0.00 63 1013.3
20260904065045 80 143 13.0 19.0 0.00 0.00 0.00 62 1013.3
20260904064618 80 137 13.0 18.0 0.00 0.00 0.00 62 1013.2
20260904064046 80 134 13.0 20.0 0.00 0.00 0.00 62 1013.4
20260904063546 81 155 12.0 20.0 0.00 0.00 0.00 62 1013.5
20260904063106 81 146 13.0 19.0 0.00 0.00 0.00 61 1013.5
20260904062549 81 143 13.0 18.0 0.00 0.00 0.00 61 1013.5
20260904062048 81 148 13.0 18.0 0.00 0.00 0.00 61 1013.3
20260904061603 81 162 12.0 18.0 0.00 0.00 0.00 60 1013.3
20260904061051 81 143 13.0 19.0 0.00 0.00 0.00 60 1013.3
20260904060546 82 124 13.0 21.0 0.00 0.00 0.00 59 1013.4
20260904060100 82 152 14.0 21.0 0.00 0.00 0.00 59 1013.4
20260904055546 82 144 13.0 17.0 0.00 0.00 0.00 58 1013.5
20260904055046 82 131 11.0 18.0 0.00 0.00 0.00 57 1013.4
20260904054557 82 141 11.0 20.0 0.00 0.00 0.00 57 1013.4
20260904054045 83 141 13.0 20.0 0.00 0.00 0.00 56 1013.2
20260904053545 83 153 13.0 20.0 0.00 0.00 0.00 55 1013.2
20260904053059 83 145 13.0 18.0 0.00 0.00 0.00 55 1013.1
20260904052549 83 143 13.0 18.0 0.00 0.00 0.00 54 1013.1
20260904052046 84 136 13.0 20.0 0.00 0.00 0.00 53 1013.1
20260904051607 84 165 15.0 20.0 0.00 0.00 0.00 53 1013.1
20260904051048 84 152 15.0 19.0 0.00 0.00 0.00 53 1013.1
20260904050547 84 143 11.0 20.0 0.00 0.00 0.00 52 1013.0
20260904050120 84 150 13.0 20.0 0.00 0.00 0.00 52 1012.9
20260904045546 84 137 13.0 18.0 0.00 0.00 0.00 52 1012.9
20260904045046 84 166 13.0 19.0 0.00 0.00 0.00 52 1012.7
20260904044602 84 161 12.0 21.0 0.00 0.00 0.00 52 1012.7
20260904044047 84 143 14.0 21.0 0.00 0.00 0.00 51 1012.7
20260904043545 84 146 15.0 21.0 0.00 0.00 0.00 52 1012.7
20260904043104 83 149 12.0 17.0 0.00 0.00 0.00 52 1012.6
20260904042547 83 148 9.0 15.0 0.00 0.00 0.00 51 1012.6
20260904042049 83 147 11.0 15.0 0.00 0.00 0.00 50 1012.6
20260904041615 83 148 9.0 15.0 0.00 0.00 0.00 50 1012.7
20260904041046 83 141 9.0 15.0 0.00 0.00 0.00 49 1012.6
20260904040546 83 143 10.0 14.0 0.00 0.00 0.00 49 1012.5
20260904040056 83 141 9.0 15.0 0.00 0.00 0.00 49 1012.3
20260904035546 83 160 9.0 15.0 0.00 0.00 0.00 48 1012.4
20260904035046 83 149 10.0 15.0 0.00 0.00 0.00 48 1012.4
20260904034614 84 151 10.0 15.0 0.00 0.00 0.00 47 1012.3
20260904034050 84 153 10.0 15.0 0.00 0.00 0.00 47 1012.2
20260904033549 84 174 10.0 15.0 0.00 0.00 0.00 47 1012.1
20260904033105 84 155 9.0 13.0 0.00 0.00 0.00 47 1012.1
20260904032547 84 149 8.0 12.0 0.00 0.00 0.00 47 1012.1
20260904032048 84 153 8.0 13.0 0.00 0.00 0.00 46 1012.0
20260904031604 85 155 9.0 13.0 0.00 0.00 0.00 45 1012.0
20260904031046 85 139 8.0 12.0 0.00 0.00 0.00 45 1011.8
20260904030546 85 161 8.0 11.0 0.00 0.00 0.00 44 1011.7
20260904030055 85 169 8.0 12.0 0.00 0.00 0.00 44 1011.7
20260904025546 86 144 9.0 12.0 0.00 0.00 0.00 44 1011.8
20260904025046 86 150 7.0 12.0 0.00 0.00 0.00 43 1011.7
20260904024607 87 148 8.0 12.0 0.00 0.00 0.00 41 1011.7
20260904024047 87 150 8.0 12.0 0.00 0.00 0.00 41 1011.7
20260904023547 88 149 8.0 12.0 0.00 0.00 0.00 40 1011.5
20260904023102 89 139 9.0 13.0 0.00 0.00 0.00 39 1011.4
20260904022547 89 154 10.0 15.0 0.00 0.00 0.00 39 1011.4
20260904022045 89 160 10.0 15.0 0.00 0.00 0.00 39 1011.4
20260904021603 89 139 10.0 14.0 0.00 0.00 0.00 39 1011.4
20260904021045 88 136 9.0 12.0 0.00 0.00 0.00 39 1011.4
20260904020546 88 124 8.0 12.0 0.00 0.00 0.00 39 1011.6
20260904020101 88 130 7.0 9.0 0.00 0.00 0.00 39 1011.4
20260904015545 88 143 6.0 9.0 0.00 0.00 0.00 39 1011.3
20260904015048 88 148 6.0 9.0 0.00 0.00 0.00 39 1011.2
20260904014628 88 143 5.0 8.0 0.00 0.00 0.00 38 1011.2
20260904014046 89 139 5.0 8.0 0.00 0.00 0.00 36 1011.0
20260904013549 89 143 6.0 8.0 0.00 0.00 0.00 35 1010.9
20260904013104 89 134 6.0 8.0 0.00 0.00 0.00 34 1010.9
20260904012547 90 123 5.0 8.0 0.00 0.00 0.00 33 1010.8
20260904012048 90 139 5.0 7.0 0.00 0.00 0.00 32 1010.9
20260904011609 90 149 5.0 7.0 0.00 0.00 0.00 31 1010.7
20260904011047 91 133 4.0 7.0 0.00 0.00 0.00 31 1010.7
20260904010548 92 132 5.0 8.0 0.00 0.00 0.00 31 1010.4
20260904010101 93 138 6.0 9.0 0.00 0.00 0.00 31 1010.4
20260904005545 93 146 6.0 9.0 0.00 0.00 0.00 31 1010.4
20260904005045 94 145 5.0 11.0 0.00 0.00 0.00 31 1010.6
20260904004557 95 134 7.0 11.0 0.00 0.00 0.00 31 1010.6
20260904004049 96 131 7.0 11.0 0.00 0.00 0.00 31 1010.7
20260904003550 96 154 7.0 12.0 0.00 0.00 0.00 30 1010.6
20260904003104 97 134 7.0 14.0 0.00 0.00 0.00 30 1010.5
20260904002552 97 140 10.0 14.0 0.00 0.00 0.00 30 1010.6
20260904002047 97 150 10.0 14.0 0.00 0.00 0.00 30 1010.5
20260904001602 98 160 10.0 16.0 0.00 0.00 0.00 29 1010.5
20260904001047 97 141 8.0 16.0 0.00 0.00 0.00 29 1010.6
20260904000547 97 144 11.0 16.0 0.00 0.00 0.00 29 1010.6
20260903235547 98 148 11.0 17.0 0.00 0.00 0.00 28 1010.7
20260903235046 99 143 9.0 17.0 0.00 0.00 0.00 27 1010.7